ROMMA est une association bénévole à but non lucratif. Votre soutien est indispensable : ADHERER à ROMMA ou FAIRE un DON

La Ferrière - (38, Isère)

Belledonne - Vallée du Haut Bréda (1000 m)   Longitude: 06° 04' 55" E   Latitude: 45° 18' 16" N Station romma n°33
 

Détail journalier du     <<     >>

Température Precipitation Humidité Pression Vent Dir Rafale Dir. rafale
Heure (°C) (mm) (%) (hPa) (km/h) (km/h)
01:00 13.808610139SE21SE
02:00 9.708810146SE38SE
03:00 9.609210136NNE14ENE
04:00 19.2063101312S33S
05:00 19.5053101216SSO39S
06:00 19.2051101212S27SO
07:00 19.3048101219SO52SSO
08:00 18.2050101210ONO44OSO
09:00 17.9050101210NO25N
10:00 19.204810127ONO29SSE
11:00 19.404810123O8O
12:00 20.704410109SE35S
13:00 21.2042101016S44SSO
14:00 20.5044101011E48E
15:00 20.004410107ONO15SO
16:00 18.10.55010109NNE39NE
17:00 16.305410108E23E
18:00 15.70.35510099NE30NE
19:00 16.005310097NE28SE
20:00 14.9057101210ESE30ESE
21:00 12.22.57110106SSE12S
22:00 14.806310099ENE26ONO
23:00 10.907510117N27N
minuit 10.60.77810122N7N

Graphique du 23-10-2019

 

Serveur OMMA